Location: Bonneuil
(46.1010°N, 2.9693°E)
Time: 02:39:00
(UTC+00:00)

MetOp-B - Pass Details

Date: 09 April 2020
Orbit: 819 x 822 km, 98.7° (Epoch: 29 May)

Event Time Altitude Azimuth Distance (km) Brightness Sun altitude
Exits shadow 20:32:22 37° 154° (SSE) 1,261 4.6 -20.4°
Maximum altitude 20:34:35 79° 73° (ENE) 844 4.0 -20.7°
Drops below altitude 10° 20:39:58 10° 348° (NNW) 2,430 7.3 -21.4°
Sets 20:42:19 0° 347° (NNW) 3,367 8.1 -21.7°
